• în România
  • Lista ţărilor
  • Pe 7 zile
  • Temperatura apei
  • Hartă satelitară
  • Meteo pe hartă
  • Widget-uri
  • user-avatar
    Intrare

    Meteo pe oră la Ropotamo

    Astăzi, 19 Septembrie, Miercuri

    Timp Temperatura Precipitaţii Vânt Presiune Umiditate
    00:00 +17°C° 0 mm 4 m/s 763 mmHg 84%
    01:00 +17°C° 0 mm 4 m/s 763 mmHg 86%
    02:00 +17°C° 0 mm 4 m/s 763 mmHg 88%
    03:00 +17°C° 0 mm 4 m/s 763 mmHg 88%
    04:00 +17°C° 0 mm 4 m/s 763 mmHg 89%
    05:00 +17°C° 0 mm 4 m/s 763 mmHg 90%
    06:00 +18°C° 0 mm 4 m/s 763 mmHg 83%
    07:00 +19°C° 0 mm 5 m/s 763 mmHg 76%
    08:00 +21°C° 0 mm 5 m/s 763 mmHg 69%
    09:00 +22°C° 0 mm 5 m/s 763 mmHg 62%
    10:00 +23°C° 0 mm 5 m/s 763 mmHg 55%
    11:00 +26°C° 0 mm 6 m/s 763 mmHg 48%
    12:00 +26°C° 0 mm 6 m/s 763 mmHg 47%
    13:00 +26°C° 0 mm 6 m/s 763 mmHg 46%
    14:00 +27°C° 0 mm 6 m/s 763 mmHg 44%
    15:00 +26°C° 0 mm 6 m/s 762 mmHg 48%
    16:00 +24°C° 0 mm 6 m/s 762 mmHg 53%
    17:00 +23°C° 0 mm 6 m/s 762 mmHg 57%
    18:00 +21°C° 0 mm 5 m/s 762 mmHg 65%
    19:00 +20°C° 0 mm 5 m/s 762 mmHg 73%
    20:00 +17°C° 0 mm 5 m/s 762 mmHg 81%
    21:00 +18°C° 0 mm 4 m/s 762 mmHg 83%
    22:00 +18°C° 0 mm 4 m/s 762 mmHg 85%
    23:00 +17°C° 0 mm 4 m/s 762 mmHg 87%

    Mâine, 20 Septembrie, Joi

    Timp Temperatura Precipitaţii Vânt Presiune Umiditate
    00:00 +17°C° 0 mm 4 m/s 762 mmHg 88%
    01:00 +17°C° 0 mm 4 m/s 762 mmHg 89%
    02:00 +17°C° 0 mm 4 m/s 762 mmHg 91%
    03:00 +15°C° 0 mm 4 m/s 762 mmHg 91%
    04:00 +15°C° 0 mm 4 m/s 762 mmHg 92%
    05:00 +15°C° 0 mm 4 m/s 761 mmHg 93%
    06:00 +17°C° 0 mm 5 m/s 762 mmHg 86%
    07:00 +19°C° 0 mm 5 m/s 762 mmHg 80%
    08:00 +21°C° 0 mm 6 m/s 762 mmHg 74%
    09:00 +22°C° 0 mm 6 m/s 762 mmHg 68%
    10:00 +24°C° 0 mm 6 m/s 762 mmHg 61%
    11:00 +27°C° 0 mm 6 m/s 761 mmHg 54%
    12:00 +27°C° 0 mm 6 m/s 761 mmHg 53%
    13:00 +27°C° 0 mm 6 m/s 761 mmHg 51%
    14:00 +28°C° 0 mm 6 m/s 760 mmHg 50%
    15:00 +27°C° 0 mm 6 m/s 760 mmHg 53%
    16:00 +26°C° 0 mm 6 m/s 760 mmHg 57%
    17:00 +24°C° 0 mm 6 m/s 760 mmHg 60%
    18:00 +23°C° 0 mm 5 m/s 760 mmHg 69%
    19:00 +21°C° 0 mm 5 m/s 761 mmHg 77%
    20:00 +20°C° 0 mm 5 m/s 761 mmHg 86%
    21:00 +19°C° 0 mm 4 m/s 761 mmHg 87%
    22:00 +19°C° 0 mm 4 m/s 761 mmHg 89%
    23:00 +19°C° 0 mm 4 m/s 761 mmHg 90%

    Poimâine, 21 Septembrie, Vineri

    Timp Temperatura Precipitaţii Vânt Presiune Umiditate
    00:00 +19°C° 0 mm 4 m/s 761 mmHg 91%
    01:00 +18°C° 0 mm 4 m/s 760 mmHg 91%
    02:00 +18°C° 0 mm 4 m/s 760 mmHg 92%
    03:00 +18°C° 0 mm 4 m/s 760 mmHg 92%
    04:00 +18°C° 0 mm 4 m/s 760 mmHg 92%
    05:00 +18°C° 0 mm 4 m/s 760 mmHg 91%
    06:00 +19°C° 0 mm 4 m/s 760 mmHg 85%
    07:00 +20°C° 0 mm 4 m/s 761 mmHg 79%
    08:00 +21°C° 0 mm 4 m/s 761 mmHg 73%
    09:00 +23°C° 0 mm 5 m/s 761 mmHg 64%
    10:00 +26°C° 0 mm 5 m/s 761 mmHg 56%
    11:00 +28°C° 0 mm 5 m/s 761 mmHg 47%
    12:00 +28°C° 0 mm 5 m/s 761 mmHg 46%
    13:00 +29°C° 0 mm 5 m/s 760 mmHg 45%
    14:00 +29°C° 0 mm 5 m/s 760 mmHg 44%
    15:00 +28°C° 0 mm 5 m/s 760 mmHg 48%
    16:00 +27°C° 0 mm 4 m/s 760 mmHg 52%
    17:00 +26°C° 0 mm 4 m/s 760 mmHg 55%
    18:00 +25°C° 0 mm 4 m/s 760 mmHg 66%
    19:00 +22°C° 0 mm 3 m/s 760 mmHg 76%
    20:00 +20°C° 0 mm 3 m/s 760 mmHg 86%
    21:00 +20°C° 0 mm 2 m/s 760 mmHg 88%
    22:00 +19°C° 0 mm 2 m/s 760 mmHg 89%
    23:00 +19°C° 0 mm 2 m/s 760 mmHg 91%

    22 Septembrie, Sâmbătă

    Timp Temperatura Precipitaţii Vânt Presiune Umiditate
    00:00 +19°C° 0 mm 2 m/s 760 mmHg 91%
    01:00 +18°C° 0 mm 2 m/s 760 mmHg 91%
    02:00 +18°C° 0 mm 2 m/s 760 mmHg 92%
    03:00 +18°C° 0 mm 2 m/s 760 mmHg 92%
    04:00 +18°C° 0 mm 2 m/s 760 mmHg 92%
    05:00 +17°C° 0 mm 2 m/s 760 mmHg 91%
    06:00 +19°C° 0 mm 2 m/s 760 mmHg 85%
    07:00 +20°C° 0 mm 2 m/s 760 mmHg 78%
    08:00 +23°C° 0 mm 2 m/s 760 mmHg 71%
    09:00 +25°C° 0 mm 2 m/s 760 mmHg 61%
    10:00 +27°C° 0 mm 2 m/s 760 mmHg 50%
    11:00 +29°C° 0 mm 2 m/s 760 mmHg 39%
    12:00 +29°C° 0 mm 3 m/s 760 mmHg 37%
    13:00 +30°C° 0 mm 3 m/s 759 mmHg 35%
    14:00 +31°C° 0 mm 3 m/s 759 mmHg 33%
    15:00 +30°C° 0 mm 3 m/s 759 mmHg 36%
    16:00 +29°C° 0 mm 3 m/s 759 mmHg 39%
    17:00 +28°C° 0 mm 3 m/s 759 mmHg 43%
    18:00 +26°C° 0 mm 2 m/s 759 mmHg 52%
    19:00 +23°C° 0 mm 2 m/s 759 mmHg 61%
    20:00 +20°C° 0 mm 2 m/s 759 mmHg 70%
    21:00 +21°C° 0 mm 1 m/s 759 mmHg 70%
    22:00 +20°C° 0 mm 1 m/s 759 mmHg 70%
    23:00 +20°C° 0 mm 1 m/s 759 mmHg 70%

    23 Septembrie, Duminică

    Timp Temperatura Precipitaţii Vânt Presiune Umiditate
    00:00 +20°C° 0 mm 1 m/s 759 mmHg 69%
    01:00 +20°C° 0 mm 1 m/s 759 mmHg 68%
    02:00 +20°C° 0 mm 1 m/s 759 mmHg 66%
    03:00 +19°C° 0 mm 1 m/s 759 mmHg 65%
    04:00 +19°C° 0 mm 1 m/s 759 mmHg 64%
    05:00 +18°C° 0 mm 2 m/s 759 mmHg 63%
    06:00 +20°C° 0 mm 2 m/s 759 mmHg 59%
    07:00 +21°C° 0 mm 2 m/s 759 mmHg 55%
    08:00 +24°C° 0 mm 2 m/s 759 mmHg 50%
    09:00 +26°C° 0 mm 2 m/s 759 mmHg 44%
    10:00 +28°C° 0 mm 2 m/s 759 mmHg 37%
    11:00 +31°C° 0 mm 2 m/s 759 mmHg 30%
    12:00 +31°C° 0 mm 3 m/s 759 mmHg 30%
    13:00 +33°C° 0 mm 3 m/s 759 mmHg 29%
    14:00 +33°C° 0 mm 3 m/s 759 mmHg 28%
    15:00 +32°C° 0 mm 4 m/s 759 mmHg 32%
    16:00 +30°C° 0 mm 6 m/s 759 mmHg 36%
    17:00 +29°C° 0 mm 7 m/s 760 mmHg 41%
    18:00 +26°C° 0 mm 7 m/s 760 mmHg 51%
    19:00 +23°C° 0 mm 7 m/s 761 mmHg 62%
    20:00 +20°C° 0 mm 6 m/s 761 mmHg 73%
    21:00 +20°C° 0 mm 6 m/s 761 mmHg 74%
    22:00 +19°C° 0 mm 6 m/s 761 mmHg 75%
    23:00 +19°C° 0 mm 5 m/s 762 mmHg 75%

    24 Septembrie, Luni

    Timp Temperatura Precipitaţii Vânt Presiune Umiditate
    00:00 +19°C° 0 mm 5 m/s 761 mmHg 76%
    01:00 +17°C° 0 mm 5 m/s 761 mmHg 76%
    02:00 +18°C° 0 mm 4 m/s 761 mmHg 77%
    03:00 +18°C° 0 mm 4 m/s 761 mmHg 77%
    04:00 +17°C° 0 mm 4 m/s 761 mmHg 78%
    05:00 +17°C° 0 mm 4 m/s 761 mmHg 78%
    06:00 +18°C° 0 mm 4 m/s 760 mmHg 75%
    07:00 +19°C° 0 mm 4 m/s 760 mmHg 71%
    08:00 +21°C° 0 mm 4 m/s 760 mmHg 67%
    09:00 +22°C° 0 mm 4 m/s 760 mmHg 62%
    10:00 +25°C° 0 mm 3 m/s 759 mmHg 57%
    11:00 +27°C° 0 mm 3 m/s 759 mmHg 52%
    12:00 +27°C° 0 mm 4 m/s 759 mmHg 50%
    13:00 +28°C° 0 mm 4 m/s 758 mmHg 49%
    14:00 +29°C° 0 mm 4 m/s 757 mmHg 47%
    15:00 +28°C° 0 mm 4 m/s 757 mmHg 51%
    16:00 +27°C° 0 mm 5 m/s 757 mmHg 56%
    17:00 +26°C° 0 mm 5 m/s 756 mmHg 61%
    18:00 +23°C° 0 mm 5 m/s 756 mmHg 69%
    19:00 +21°C° 0 mm 5 m/s 756 mmHg 78%
    20:00 +20°C° 0 mm 5 m/s 756 mmHg 87%
    21:00 +19°C° 0 mm 4 m/s 756 mmHg 89%
    22:00 +19°C° 0 mm 4 m/s 755 mmHg 90%
    23:00 +19°C° 0 mm 4 m/s 755 mmHg 92%
    Arată mai mult